QPF
0.00 0.00 0.00 0.00 0.00 0.00 0.00 0.00 0.00 0.00 0.00 0.00 0.00 0.00 0.02 0.00 0.00 0.04 0.01 0.00 0.00 0.00 0.00 0.00 0.00 0.00 0.00 0.00 0.00 0.00 0.00 0.00 0.02 0.02 0.00 0.00 0.00 0.00 0.00 0.00 0.00 0.00 0.00 0.00
0.00 0.00 0.00 0.00 0.00 0.00 0.00 0.00 0.00 0.00 0.00 0.00 0.00 0.00 0.03 0.02 0.01 0.01 0.00 0.00 0.00 0.00 0.00 0.00 0.00 0.00 0.00 0.00 0.00 0.00 0.01 0.00 0.02 0.03 0.00 0.00 0.00 0.00 0.00 0.00 0.00 0.00 0.00 0.00
0.00 0.00 0.00 0.00 0.00 0.00 0.00 0.00 0.00 0.00 0.00 0.00 0.00 0.01 0.02 0.01 0.02 0.00 0.00 0.00 0.02 0.00 0.00 0.00 0.00 0.00 0.00 0.00 0.00 0.00 0.00 0.01 0.02 0.02 0.01 0.00 0.00 0.00 0.00 0.00 0.00 0.00 0.00 0.00
0.00 0.00 0.00 0.00 0.00 0.00 0.00 0.00 0.00 0.00 0.00 0.00 0.00 0.00 0.00 0.00 0.01 0.01 0.00 0.01 0.00 0.00 0.00 0.00 0.00 0.00 0.00 0.00 0.00 0.00 0.01 0.01 0.03 0.02 0.00 0.00 0.00 0.00 0.00 0.00 0.00 0.00 0.00 0.00
0.00 0.00 0.00 0.00 0.00 0.00 0.00 0.00 0.00 0.00 0.00 0.00 0.00 0.00 0.00 0.00 0.00 0.00 0.00 0.01 0.00 0.00 0.00 0.00 0.00 0.00 0.00 0.00 0.00 0.00 0.00 0.00 0.00 0.00 0.00 0.00 0.00 0.00 0.00 0.00 0.00 0.00 0.00 0.00
0.00 0.00 0.00 0.00 0.00 0.00 0.00 0.00 0.00 0.00 0.00 0.00 0.00 0.00 0.00 0.00 0.00 0.00 0.00 0.01 0.00 0.00 0.00 0.00 0.00 0.00 0.00 0.00 0.00 0.00 0.00 0.00 0.00 0.00 0.00 0.00 0.00 0.00 0.00 0.00 0.00 0.00 0.00 0.00
0.00 0.00 0.00 0.00 0.00 0.00 0.00 0.00 0.00 0.00 0.00 0.00 0.00 0.00 0.00 0.00 0.00 0.00 0.00 0.00 0.00 0.00 0.00 0.00 0.00 0.00 0.00 0.00 0.00 0.00 0.00 0.00 0.00 0.00 0.00 0.00 0.00 0.00 0.00 0.00 0.00 0.00 0.00 0.00
0.00 0.00 0.00 0.00 0.00 0.00 0.00 0.00 0.00 0.00 0.00 0.00 0.00 0.00 0.00 0.00 0.00 0.00 0.00 0.00 0.00 0.00 0.00 0.00 0.00 0.00 0.00 0.00 0.00 0.00 0.00 0.00 0.00 0.00 0.00 0.00 0.00 0.00 0.00 0.00 0.00 0.00 0.01 0.03
0.00 0.00 0.00 0.00 0.00 0.00 0.00 0.00 0.00 0.00 0.00 0.00 0.00 0.00 0.00 0.00 0.00 0.00 0.00 0.00 0.00 0.00 0.00 0.00 0.00 0.00 0.00 0.00 0.00 0.00 0.00 0.00 0.00 0.00 0.00 0.00 0.00 0.00 0.00 0.00 0.00 0.00 0.00 0.03
0.00 0.00 0.00 0.00 0.00 0.00 0.00 0.00 0.00 0.00 0.00 0.00 0.00 0.00 0.00 0.00 0.00 0.00 0.00 0.00 0.00 0.00 0.00 0.00 0.00 0.00 0.00 0.00 0.00 0.00 0.00 0.00 0.00 0.00 0.00 0.00 0.00 0.00 0.00 0.00 0.00 0.00 0.00 0.00
0.00 0.00 0.00 0.00 0.00 0.00 0.00 0.00 0.00 0.00 0.00 0.00 0.00 0.00 0.00 0.00 0.00 0.00 0.00 0.00 0.00 0.00 0.00 0.00 0.00 0.00 0.00 0.00 0.00 0.00 0.00 0.00 0.00 0.00 0.00 0.00 0.00 0.00 0.00 0.00 0.00 0.00 0.00 0.00
0.00 0.00 0.00 0.00 0.00 0.00 0.00 0.00 0.00 0.00 0.00 0.00 0.00 0.00 0.00 0.00 0.00 0.00 0.00 0.00 0.00 0.00 0.00 0.00 0.00 0.00 0.00 0.00 0.00 0.00 0.00 0.00 0.00 0.00 0.00 0.00 0.00 0.00 0.00 0.00 0.00 0.00 0.00 0.00
0.00 0.00 0.00 0.00 0.00 0.00 0.00 0.00 0.00 0.00 0.00 0.00 0.00 0.00 0.00 0.00 0.00 0.00 0.00 0.00 0.00 0.00 0.00 0.00 0.00 0.00 0.00 0.00 0.00 0.00 0.00 0.00 0.00 0.00 0.00 0.00 0.00 0.00 0.00 0.00 0.00 0.00 0.00 0.00
0.00 0.00 0.00 0.00 0.00 0.00 0.00 0.00 0.00 0.00 0.00 0.00 0.00 0.00 0.00 0.00 0.00 0.00 0.00 0.00 0.00 0.00 0.00 0.00 0.00 0.00 0.00 0.00 0.00 0.00 0.00 0.00 0.00 0.00 0.00 0.00 0.00 0.00 0.00 0.00 0.00 0.00 0.00 0.00
0.00 0.00 0.00 0.00 0.00 0.00 0.00 0.00 0.00 0.00 0.00 0.00 0.00 0.00 0.00 0.00 0.00 0.00 0.00 0.00 0.00 0.00 0.00 0.00 0.00 0.00 0.00 0.00 0.00 0.00 0.00 0.00 0.00 0.00 0.00 0.00 0.00 0.00 0.00 0.00 0.00 0.00 0.00 0.00
0.01 0.00 0.00 0.00 0.00 0.00 0.00 0.00 0.00 0.00 0.00 0.00 0.00 0.00 0.00 0.00 0.00 0.00 0.00 0.00 0.00 0.00 0.00 0.00 0.00 0.00 0.00 0.00 0.00 0.00 0.00 0.00 0.00 0.00 0.00 0.00 0.00 0.00 0.00 0.00 0.00 0.00 0.00 0.00
0.00 0.00 0.00 0.00 0.00 0.00 0.00 0.00 0.00 0.00 0.00 0.00 0.00 0.00 0.00 0.00 0.00 0.00 0.00 0.00 0.00 0.00 0.00 0.00 0.00 0.00 0.00 0.00 0.00 0.00 0.00 0.00 0.00 0.00 0.00 0.00 0.00 0.00 0.00 0.00 0.00 0.00 0.00 0.00
0.00 0.00 0.01 0.00 0.00 0.00 0.00 0.00 0.00 0.00 0.00 0.00 0.00 0.00 0.00 0.00 0.00 0.00 0.00 0.00 0.00 0.00 0.00 0.00 0.00 0.00 0.00 0.00 0.00 0.00 0.00 0.00 0.00 0.00 0.00 0.00 0.00 0.00 0.00 0.00 0.00 0.00 0.00 0.00
0.03 0.05 0.01 0.00 0.00 0.00 0.00 0.00 0.00 0.00 0.00 0.00 0.00 0.00 0.00 0.00 0.00 0.00 0.00 0.00 0.00 0.00 0.00 0.00 0.00 0.00 0.00 0.00 0.00 0.00 0.00 0.00 0.00 0.00 0.00 0.00 0.00 0.00 0.00 0.00 0.00 0.00 0.00 0.00
0.01 0.07 0.02 0.00 0.00 0.00 0.00 0.00 0.00 0.00 0.00 0.00 0.00 0.00 0.00 0.00 0.00 0.00 0.00 0.00 0.00 0.00 0.00 0.00 0.00 0.00 0.00 0.00 0.00 0.00 0.00 0.00 0.00 0.00 0.00 0.00 0.00 0.00 0.00 0.00 0.00 0.00 0.00 0.00
0.00 0.01 0.01 0.00 0.00 0.00 0.00 0.00 0.00 0.00 0.00 0.00 0.00 0.00 0.00 0.00 0.00 0.00 0.00 0.00 0.00 0.00 0.00 0.00 0.00 0.00 0.00 0.00 0.00 0.00 0.00 0.00 0.00 0.00 0.00 0.00 0.00 0.00 0.00 0.00 0.00 0.00 0.00 0.00
0.01 0.01 0.00 0.00 0.00 0.00 0.01 0.00 0.00 0.00 0.00 0.00 0.00 0.00 0.00 0.00 0.00 0.00 0.00 0.00 0.00 0.00 0.00 0.00 0.00 0.00 0.00 0.00 0.00 0.00 0.00 0.00 0.00 0.00 0.00 0.00 0.00 0.00 0.00 0.00 0.00 0.00 0.00 0.00
0.00 0.00 0.00 0.00 0.01 0.00 0.00 0.00 0.00 0.00 0.00 0.00 0.00 0.00 0.00 0.00 0.00 0.00 0.00 0.00 0.00 0.00 0.00 0.00 0.00 0.00 0.00 0.00 0.00 0.00 0.00 0.00 0.00 0.00 0.00 0.00 0.00 0.00 0.00 0.00 0.00 0.00 0.00 0.00
0.01 0.00 0.00 0.00 0.00 0.00 0.00 0.00 0.00 0.00 0.00 0.00 0.00 0.00 0.00 0.00 0.00 0.00 0.00 0.00 0.00 0.00 0.00 0.00 0.00 0.00 0.00 0.00 0.00 0.00 0.00 0.00 0.00 0.00 0.00 0.00 0.00 0.00 0.00 0.00 0.00 0.00 0.00 0.00
0.00 0.00 0.00 0.00 0.00 0.00 0.00 0.00 0.00 0.00 0.00 0.00 0.00 0.00 0.00 0.00 0.00 0.00 0.00 0.00 0.00 0.00 0.00 0.00 0.00 0.00 0.00 0.00 0.00 0.00 0.00 0.00 0.00 0.00 0.00 0.00 0.00 0.00 0.00 0.00 0.00 0.01 0.00 0.00
0.00 0.00 0.00 0.00 0.00 0.00 0.00 0.00 0.00 0.00 0.00 0.00 0.00 0.00 0.00 0.00 0.00 0.00 0.00 0.00 0.00 0.00 0.00 0.00 0.00 0.00 0.00 0.00 0.00 0.00 0.00 0.00 0.00 0.00 0.00 0.00 0.00 0.00 0.00 0.00 0.00 0.00 0.00 0.00
MSLP
1009.30 1010.37 1011.05 1010.91 1011.20 1011.20 1011.81 1012.46 1012.85 1012.44 1012.77 1013.54 1014.60 1015.51 1016.06 1016.69 1017.33 1017.54 1017.31 1017.46 1018.01 1018.44 1017.78 1018.20 1018.52 1018.88 1019.00 1019.50 1019.92 1020.14 1020.23 1019.95 1020.21 1020.22 1020.21 1020.11 1020.16 1019.90 1019.68 1019.34 1019.14 1019.09 1018.85 1018.85
1009.62 1009.92 1009.37 1009.82 1010.00 1010.53 1010.95 1011.74 1011.95 1012.04 1012.42 1013.42 1014.71 1015.68 1016.37 1016.49 1016.42 1016.87 1017.45 1017.70 1017.81 1018.05 1018.02 1018.07 1018.24 1018.67 1018.74 1019.03 1019.49 1019.70 1019.74 1019.94 1019.95 1020.06 1019.99 1019.99 1019.94 1019.73 1019.55 1019.28 1019.04 1018.80 1018.69 1018.71
1009.43 1008.79 1008.45 1009.08 1009.20 1009.90 1009.99 1010.72 1011.16 1011.80 1012.79 1013.90 1014.90 1016.20 1016.52 1016.76 1016.85 1016.73 1016.93 1016.77 1017.17 1017.56 1017.59 1017.68 1017.96 1018.20 1018.45 1018.76 1019.01 1019.32 1019.21 1019.43 1019.46 1019.73 1019.87 1019.91 1019.88 1019.67 1019.52 1019.25 1019.04 1018.59 1018.39 1018.35
1008.98 1007.96 1008.24 1008.28 1008.56 1008.95 1009.63 1009.71 1010.31 1011.44 1013.08 1014.19 1014.63 1016.33 1016.53 1016.48 1016.74 1016.61 1016.52 1016.35 1016.62 1016.88 1016.98 1017.18 1017.51 1017.88 1018.22 1018.30 1018.63 1018.70 1018.93 1019.18 1019.37 1019.67 1019.79 1019.91 1020.00 1019.96 1019.53 1019.27 1018.89 1018.56 1018.03 1017.75
1007.90 1007.85 1007.87 1007.98 1007.78 1008.21 1008.78 1009.20 1010.32 1011.07 1012.56 1013.93 1015.37 1016.46 1016.15 1016.45 1016.64 1016.45 1016.20 1015.91 1016.18 1016.35 1016.63 1016.90 1017.24 1017.52 1017.78 1017.90 1018.14 1018.41 1018.75 1019.03 1019.19 1019.26 1019.34 1019.59 1019.75 1019.58 1019.10 1018.86 1018.56 1018.23 1017.86 1017.62
1008.01 1007.47 1007.45 1007.19 1007.25 1007.85 1008.53 1009.45 1010.58 1011.86 1012.91 1014.49 1015.35 1016.21 1016.04 1016.49 1016.09 1016.17 1015.98 1016.37 1016.24 1016.49 1016.97 1017.05 1017.26 1017.55 1017.74 1018.01 1018.30 1018.51 1018.66 1018.72 1018.78 1018.96 1019.04 1019.24 1019.49 1019.27 1019.09 1018.56 1018.41 1017.97 1017.63 1017.27
1008.20 1007.69 1007.22 1006.97 1007.52 1008.05 1009.09 1010.13 1011.51 1012.76 1014.09 1015.17 1015.47 1015.95 1015.54 1015.60 1015.41 1015.36 1015.89 1016.41 1016.46 1016.68 1017.04 1017.23 1017.51 1017.73 1017.94 1018.17 1018.34 1018.55 1018.80 1018.82 1018.60 1018.69 1018.76 1018.83 1018.95 1018.97 1018.98 1018.57 1018.25 1017.82 1017.36 1016.90
1009.03 1008.22 1007.66 1007.10 1007.38 1007.98 1008.93 1010.17 1011.92 1013.21 1014.81 1015.28 1015.61 1015.88 1015.37 1015.25 1015.13 1015.29 1015.72 1016.19 1016.73 1017.01 1016.99 1017.19 1017.36 1017.63 1017.97 1018.14 1018.25 1018.53 1018.63 1018.59 1018.38 1018.46 1018.40 1018.33 1018.34 1018.44 1018.26 1018.06 1017.87 1017.59 1017.24 1016.66
1009.31 1008.66 1007.80 1007.27 1007.22 1008.09 1009.16 1010.47 1011.18 1012.74 1014.63 1015.54 1016.09 1016.12 1015.35 1015.37 1015.52 1015.69 1016.07 1016.54 1016.92 1016.99 1017.25 1017.40 1017.42 1017.83 1018.20 1018.40 1018.19 1018.28 1018.36 1018.42 1018.47 1018.25 1018.07 1018.08 1018.02 1018.14 1018.02 1017.62 1017.36 1017.05 1016.66 1016.31
1009.09 1009.11 1008.33 1007.61 1007.53 1008.28 1008.93 1010.20 1011.50 1013.04 1014.77 1015.78 1016.38 1016.48 1015.80 1015.63 1015.66 1015.88 1016.37 1016.67 1016.73 1016.94 1017.18 1017.13 1017.65 1017.84 1018.08 1018.09 1017.83 1018.02 1018.40 1018.47 1018.26 1018.13 1018.04 1017.99 1017.85 1017.55 1017.59 1017.49 1017.15 1016.76 1016.16 1015.80
1009.23 1009.53 1009.32 1008.45 1008.95 1009.21 1009.52 1010.50 1011.99 1013.31 1014.69 1015.78 1016.51 1016.19 1014.80 1014.94 1015.19 1015.47 1016.11 1016.47 1016.54 1016.78 1016.87 1017.13 1017.33 1017.57 1017.59 1017.81 1018.07 1018.20 1018.37 1018.37 1018.36 1018.30 1018.22 1018.17 1017.96 1017.58 1017.34 1017.14 1016.71 1016.29 1015.81 1015.32
1010.23 1010.37 1010.59 1010.05 1009.47 1009.57 1009.86 1010.69 1011.96 1013.67 1014.95 1015.82 1016.09 1015.17 1014.46 1014.46 1014.62 1015.15 1015.79 1015.99 1016.27 1016.54 1016.89 1017.32 1017.52 1017.84 1018.17 1018.36 1018.50 1018.57 1018.70 1018.72 1018.67 1018.58 1018.52 1018.20 1017.76 1017.49 1017.37 1016.87 1016.33 1015.82 1015.30 1014.72
1010.53 1011.17 1011.48 1011.00 1010.59 1010.15 1010.57 1011.03 1011.82 1013.18 1014.27 1015.23 1015.86 1014.94 1014.42 1014.47 1014.80 1015.14 1015.65 1016.02 1016.53 1016.75 1017.26 1017.78 1018.11 1018.18 1018.40 1018.62 1018.74 1018.86 1018.85 1018.74 1018.55 1018.34 1018.23 1018.09 1017.82 1017.55 1017.16 1016.66 1016.12 1015.50 1014.83 1014.21
1010.91 1011.94 1012.33 1012.39 1012.03 1011.81 1011.62 1011.33 1011.93 1012.92 1014.27 1014.75 1014.88 1014.57 1014.84 1014.99 1015.21 1015.53 1015.92 1016.35 1016.93 1017.33 1017.65 1018.00 1018.53 1018.71 1018.79 1019.00 1019.10 1019.13 1019.13 1018.83 1018.67 1018.64 1018.59 1018.39 1017.90 1017.37 1016.87 1016.39 1015.87 1015.27 1014.58 1013.96
1011.81 1012.79 1012.73 1012.47 1012.23 1012.08 1011.90 1011.74 1012.01 1012.88 1013.50 1014.24 1014.25 1014.44 1014.38 1014.60 1015.12 1015.46 1015.79 1016.44 1017.09 1017.73 1018.17 1018.58 1019.07 1019.31 1019.42 1019.53 1019.41 1019.28 1019.32 1019.18 1019.03 1018.90 1018.66 1018.35 1017.76 1017.10 1016.63 1016.14 1015.62 1014.97 1014.35 1013.81
1012.43 1013.05 1013.15 1012.93 1012.41 1012.35 1012.48 1012.56 1012.69 1013.19 1013.60 1013.91 1014.24 1014.32 1013.95 1014.29 1015.10 1015.87 1016.16 1016.94 1017.79 1018.19 1018.69 1019.09 1019.40 1019.61 1019.72 1019.72 1019.75 1019.62 1019.51 1019.36 1019.15 1018.95 1018.55 1018.11 1017.60 1016.99 1016.53 1016.05 1015.50 1014.78 1014.23 1013.69
1013.00 1013.59 1014.14 1013.82 1013.16 1012.82 1013.22 1013.49 1013.32 1013.48 1013.85 1014.27 1014.51 1014.43 1014.46 1015.13 1015.83 1016.40 1016.97 1017.38 1018.10 1018.71 1019.07 1019.39 1019.57 1019.67 1019.83 1019.95 1019.94 1019.81 1019.70 1019.54 1019.30 1018.92 1018.51 1018.09 1017.53 1017.03 1016.45 1015.94 1015.28 1014.61 1014.09 1013.62
1013.41 1014.34 1014.99 1015.00 1014.30 1014.14 1014.05 1013.88 1013.91 1013.91 1014.24 1014.25 1014.59 1015.07 1015.41 1016.12 1016.81 1016.98 1017.36 1017.88 1018.52 1018.92 1019.33 1019.53 1019.64 1019.89 1020.02 1019.98 1020.00 1019.81 1019.79 1019.65 1019.31 1018.90 1018.57 1018.03 1017.47 1016.94 1016.35 1015.78 1015.10 1014.52 1013.84 1013.45
1013.66 1014.88 1016.05 1016.07 1015.73 1014.93 1014.29 1013.94 1014.14 1014.21 1014.67 1014.81 1015.27 1015.92 1016.43 1017.04 1017.41 1018.24 1018.30 1018.46 1018.75 1019.03 1019.23 1019.40 1019.67 1019.98 1020.09 1020.08 1019.93 1019.80 1019.77 1019.64 1019.30 1018.81 1018.45 1017.90 1017.36 1016.90 1016.32 1015.68 1015.07 1014.38 1013.74 1013.20
1014.42 1015.10 1015.98 1016.64 1016.40 1015.48 1014.66 1014.10 1014.26 1014.44 1015.15 1015.35 1015.71 1016.43 1017.04 1017.57 1018.44 1019.11 1018.72 1018.80 1019.00 1019.16 1019.37 1019.66 1019.92 1020.08 1020.11 1020.02 1019.88 1019.79 1019.73 1019.55 1019.14 1018.71 1018.26 1017.66 1017.17 1016.66 1016.25 1015.75 1015.10 1014.23 1013.70 1013.11
1015.09 1016.04 1016.64 1017.07 1016.68 1015.65 1014.83 1014.33 1014.30 1015.27 1016.38 1015.94 1016.35 1016.98 1017.56 1018.22 1018.48 1018.43 1018.74 1019.05 1019.22 1019.36 1019.54 1019.80 1019.95 1020.05 1019.93 1019.76 1019.71 1019.82 1019.61 1019.25 1018.67 1018.35 1017.91 1017.40 1016.85 1016.49 1015.93 1015.59 1015.00 1014.40 1013.57 1012.97
1015.57 1016.27 1017.07 1017.47 1017.09 1016.17 1015.09 1014.73 1015.19 1016.08 1016.12 1016.46 1016.96 1017.43 1017.95 1018.23 1018.53 1018.78 1019.07 1019.33 1019.35 1019.53 1019.75 1019.85 1020.00 1019.92 1019.52 1019.38 1019.50 1019.49 1019.44 1018.78 1018.37 1018.02 1017.67 1017.25 1016.74 1016.33 1015.84 1015.56 1014.94 1014.35 1013.75 1013.28
1015.83 1016.17 1016.60 1017.16 1016.89 1016.10 1015.64 1015.38 1015.58 1015.98 1016.35 1016.85 1017.24 1017.66 1018.08 1018.60 1018.97 1019.22 1019.36 1019.54 1019.57 1019.62 1019.65 1019.66 1019.79 1019.61 1019.18 1019.21 1019.47 1019.52 1018.73 1018.33 1018.08 1017.88 1017.52 1017.14 1016.64 1016.21 1015.78 1015.50 1014.87 1014.41 1013.94 1013.57
1016.11 1016.00 1016.57 1016.91 1016.53 1016.15 1015.97 1015.85 1015.89 1016.19 1016.57 1016.99 1017.38 1017.98 1018.49 1018.89 1019.19 1019.39 1019.61 1019.61 1019.56 1019.54 1019.49 1019.42 1019.50 1019.35 1019.03 1018.88 1018.76 1018.60 1018.14 1018.10 1018.11 1017.86 1017.49 1017.01 1016.69 1016.28 1015.86 1015.35 1014.73 1014.35 1014.10 1013.78
1016.64 1016.33 1016.84 1017.09 1016.68 1016.37 1016.20 1016.48 1016.62 1016.96 1017.26 1017.64 1017.95 1018.16 1018.49 1018.77 1019.01 1019.07 1019.28 1019.23 1019.11 1019.13 1019.07 1019.03 1019.09 1018.87 1018.71 1018.46 1018.14 1017.80 1017.69 1017.77 1017.77 1017.58 1017.38 1016.99 1016.61 1016.26 1015.92 1015.45 1014.86 1014.55 1014.29 1014.21
1016.97 1016.87 1017.02 1017.13 1016.97 1017.06 1016.87 1016.75 1016.90 1017.27 1017.65 1017.78 1017.90 1018.21 1018.28 1018.26 1018.42 1018.51 1018.74 1018.60 1018.72 1018.73 1018.62 1018.66 1018.51 1018.42 1018.17 1017.99 1017.69 1017.34 1017.21 1017.23 1017.37 1017.43 1017.24 1017.10 1016.77 1016.26 1015.87 1015.52 1015.01 1014.63 1014.37 1014.01
Thickness
5780 5755 5744 5755 5756 5760 5750 5736 5729 5742 5747 5735 5721 5714 5716 5715 5706 5700 5701 5697 5690 5683 5691 5686 5681 5674 5671 5663 5654 5647 5642 5639 5631 5625 5618 5614 5610 5607 5606 5604 5601 5597 5596 5592
5761 5744 5771 5771 5767 5757 5752 5740 5733 5743 5747 5737 5719 5709 5710 5709 5707 5702 5696 5692 5689 5684 5683 5682 5678 5672 5667 5661 5651 5645 5639 5631 5624 5616 5611 5608 5604 5601 5599 5596 5593 5591 5588 5584
5751 5768 5784 5773 5765 5750 5751 5736 5738 5735 5732 5724 5711 5697 5699 5701 5699 5701 5699 5699 5691 5683 5681 5679 5672 5669 5663 5655 5649 5641 5635 5624 5618 5611 5605 5601 5597 5595 5591 5588 5585 5584 5581 5577
5759 5781 5776 5769 5761 5761 5734 5758 5756 5737 5714 5691 5712 5672 5691 5694 5689 5692 5694 5694 5688 5683 5682 5678 5672 5664 5658 5652 5644 5636 5627 5618 5611 5605 5600 5595 5589 5585 5583 5579 5577 5575 5574 5572
5762 5773 5769 5761 5765 5768 5750 5764 5754 5753 5727 5704 5693 5674 5685 5686 5679 5684 5689 5693 5687 5683 5678 5672 5667 5661 5654 5648 5640 5630 5621 5612 5604 5600 5596 5589 5583 5578 5577 5572 5570 5567 5564 5560
5768 5786 5779 5773 5779 5774 5770 5756 5742 5724 5710 5686 5692 5679 5681 5671 5681 5685 5690 5682 5681 5675 5668 5664 5660 5653 5646 5638 5629 5618 5611 5605 5600 5594 5589 5583 5576 5572 5567 5566 5561 5559 5555 5553
5755 5763 5777 5784 5763 5767 5751 5727 5692 5690 5683 5671 5689 5679 5681 5686 5690 5689 5680 5673 5672 5666 5660 5656 5650 5642 5636 5627 5618 5611 5602 5595 5593 5589 5584 5579 5572 5566 5560 5555 5552 5549 5546 5544
5726 5722 5761 5780 5766 5751 5747 5729 5684 5669 5663 5677 5684 5672 5679 5690 5691 5688 5680 5671 5662 5657 5656 5651 5644 5635 5627 5618 5612 5604 5597 5591 5589 5583 5579 5574 5568 5560 5555 5549 5543 5538 5533 5532
5723 5731 5768 5774 5774 5759 5737 5716 5725 5693 5678 5661 5659 5668 5683 5684 5680 5677 5668 5659 5654 5651 5645 5639 5634 5623 5615 5608 5605 5597 5590 5584 5579 5577 5573 5566 5560 5553 5546 5541 5535 5530 5526 5523
5744 5721 5757 5764 5767 5759 5744 5734 5703 5683 5669 5653 5647 5650 5655 5667 5667 5665 5655 5651 5649 5645 5638 5633 5622 5615 5606 5601 5599 5590 5580 5575 5572 5569 5563 5558 5553 5549 5539 5533 5526 5521 5520 5518
5749 5732 5732 5750 5734 5724 5723 5709 5693 5685 5670 5651 5634 5641 5673 5672 5669 5661 5653 5648 5645 5640 5634 5627 5618 5609 5604 5598 5589 5581 5573 5568 5564 5558 5553 5547 5542 5538 5531 5525 5521 5517 5515 5513
5737 5716 5704 5717 5737 5736 5731 5716 5695 5671 5668 5650 5642 5646 5679 5671 5668 5661 5651 5648 5643 5636 5627 5618 5609 5600 5593 5586 5578 5570 5563 5557 5552 5547 5541 5537 5533 5527 5521 5518 5515 5514 5512 5512
5733 5702 5684 5695 5708 5722 5713 5713 5699 5677 5665 5657 5646 5645 5674 5668 5660 5656 5648 5643 5634 5627 5617 5607 5597 5591 5582 5574 5566 5558 5552 5548 5544 5539 5532 5526 5521 5516 5513 5511 5509 5509 5509 5511
5727 5700 5692 5675 5685 5694 5691 5703 5693 5677 5650 5653 5651 5659 5656 5655 5649 5646 5640 5632 5621 5615 5608 5596 5584 5575 5568 5559 5551 5544 5540 5537 5533 5526 5519 5514 5512 5510 5506 5505 5504 5504 5505 5507
5710 5691 5697 5696 5697 5695 5693 5694 5693 5679 5672 5659 5658 5653 5656 5653 5646 5642 5636 5627 5615 5603 5593 5583 5569 5559 5552 5545 5540 5536 5531 5527 5521 5515 5510 5506 5504 5503 5501 5499 5499 5501 5501 5504
5705 5689 5693 5683 5696 5692 5680 5679 5678 5675 5667 5663 5656 5654 5663 5658 5647 5635 5628 5614 5597 5590 5580 5568 5559 5552 5545 5539 5533 5528 5523 5518 5513 5508 5503 5499 5496 5495 5494 5493 5494 5495 5497 5500
5696 5685 5673 5669 5682 5681 5663 5663 5667 5668 5666 5658 5647 5656 5654 5643 5636 5626 5611 5600 5589 5577 5568 5559 5552 5546 5537 5531 5524 5519 5514 5508 5504 5499 5496 5491 5488 5488 5487 5487 5489 5491 5492 5495
5686 5675 5661 5659 5665 5646 5665 5669 5666 5664 5658 5655 5652 5644 5638 5626 5614 5607 5598 5589 5577 5567 5558 5551 5544 5535 5528 5522 5516 5511 5505 5499 5495 5491 5487 5484 5481 5480 5480 5481 5484 5485 5487 5491
5686 5667 5647 5646 5640 5657 5661 5666 5660 5653 5648 5648 5639 5630 5620 5609 5601 5589 5585 5577 5566 5558 5550 5543 5535 5526 5520 5515 5510 5506 5499 5492 5488 5485 5480 5477 5474 5472 5471 5473 5475 5478 5481 5486
5678 5668 5656 5640 5640 5634 5655 5666 5662 5657 5623 5641 5633 5620 5610 5603 5582 5570 5574 5565 5557 5550 5541 5533 5526 5520 5512 5509 5505 5500 5494 5487 5483 5478 5474 5470 5466 5465 5462 5463 5466 5471 5474 5481
5657 5652 5645 5624 5634 5641 5656 5661 5662 5625 5614 5632 5624 5613 5603 5589 5578 5575 5565 5557 5549 5541 5533 5526 5521 5514 5510 5506 5501 5494 5488 5483 5480 5474 5469 5463 5460 5456 5455 5454 5456 5460 5468 5475
5658 5646 5637 5628 5626 5633 5657 5657 5642 5630 5631 5623 5613 5605 5595 5587 5576 5564 5553 5545 5541 5532 5525 5521 5515 5509 5507 5505 5498 5491 5483 5481 5476 5470 5462 5454 5449 5446 5444 5441 5445 5450 5458 5466
5653 5649 5639 5637 5631 5643 5647 5648 5642 5632 5624 5618 5611 5601 5588 5576 5566 5554 5546 5540 5534 5526 5521 5517 5513 5509 5507 5501 5493 5486 5485 5481 5473 5463 5453 5445 5437 5430 5427 5425 5431 5437 5446 5456
5651 5656 5642 5641 5645 5646 5645 5644 5641 5634 5627 5617 5605 5591 5579 5568 5557 5548 5539 5533 5528 5524 5520 5517 5511 5508 5505 5501 5496 5490 5486 5477 5467 5455 5444 5434 5422 5414 5408 5410 5419 5428 5437 5449
5644 5647 5638 5633 5638 5641 5641 5636 5628 5619 5612 5602 5595 5585 5573 5562 5552 5544 5537 5532 5529 5525 5522 5517 5511 5509 5506 5501 5497 5493 5486 5476 5465 5453 5437 5423 5410 5402 5397 5399 5408 5418 5428 5438
5638 5639 5628 5618 5628 5625 5625 5627 5620 5612 5603 5596 5589 5579 5571 5563 5554 5546 5537 5533 5529 5524 5522 5517 5514 5510 5506 5502 5498 5494 5488 5478 5465 5449 5436 5415 5399 5393 5393 5391 5401 5413 5424 5436